STARLINK-32824 (62817 NORAD) Tracking and Keplerian Element Data

This shows tracking and keplerian element data for the satellite.

Feedback or suggestion? Click here.




ElementValue
Catalog62817
NameSTARLINK-32824
Epoch Orbit5195
Epoch Day354.21757632
Epoch Year2025
RAAN318.5385
Inclination53.1614
Eccentricity0.0002756
Argument of Perigee47.5197
Mean Anonmoly312.6036
Mean Motion15.30204475
Decay Rate0.00017658
L11 62817U 25018M 25354.21757632 .00017658 00000+0 60679-3 0 9999
L22 62817 53.1614 318.5385 0002756 47.5197 312.6036 15.30204475 51954



Live tracking and technical data element details for STARLINK-32824 (NORAD 62817). STARLINK-32824 can be tracked NOW for your location showing map with azimuth and elevation plus other details from your city location.







IsCatalogInMostPopularTable: catalog: 62817, numindb: 268
Update: records affected: 1



GetName: 62817 STARLINK-32824

Hit Count: updated at: Fri, 16 Jan 2026 09:57:24 GMT